STARLINK-1748 (46570 NORAD) Tracking and Keplerian Element Data

This shows tracking and keplerian element data for the satellite.

Feedback or suggestion? Click here.




ElementValue
Catalog46570
NameSTARLINK-1748
Epoch Orbit177
Epoch Day304.91667824
Epoch Year2020
RAAN319.6786
Inclination52.9864
Eccentricity0.0001126
Argument of Perigee77.2328
Mean Anonmoly184.978
Mean Motion15.68445843
Decay Rate-0.01188138
L11 46570U 20070AQ 20304.91667824 -.01188138 00000-0 -11447-1 0 9993
L22 46570 52.9864 319.6786 0001126 77.2328 184.9780 15.68445843 1777

Live tracking and technical data element details for STARLINK-1748 (NORAD 46570). STARLINK-1748 can be tracked NOW for your location showing map with azimuth and elevation plus other details from your city location.

Track the satellite on the map from your city or location and see movement details for azimuth, elevation, latitude, longitude, range, height, and movement on the map or in text.







IsCatalogInMostPopularTable: catalog: 46570, numindb: 3
Update: records affected: 1



GetName: 46570 STARLINK-1748

Hit Count: updated at: Sat, 31 Oct 2020 08:26:41 GMT